Weather in Vezdino

Russia / Komi Republic     62°09′42″N   49°52′23″E
temp.,
°C
wind,
m/s
gust,
m/s
humid.,
%
clouds,
%
prec.,
mm/h
press.,
hPa
HPBL,
m
29 january, sat
sat2900:00−13s31094100 0.0 1013384
03:00−12s31094100 0.0 1012403
06:00−12s31094100 0.1 1012430
09:00−11s31093100 0.2 1011442
12:00−10s4119193 0.0 1011509
15:00−9s41093100 0.0 1011488
18:00−9s41194100 0.1 1010535
21:00−9s41194100 0.1 1009533
30 january, sun
sun3000:00−10sse31095100 0.1 1008418
03:00−10sse3896100 0.1 1008301
06:00−11sse289694 0.0 1007266
09:00−14se269880 0.1 1008147
12:00−11sse259397 0.0 1008243
15:00−13ese239866 0.0 100862
18:00−14se279981 0.0 1009123
21:00−15se279983 0.1 1009132
31 january, mon
mon3100:00−18ese1210086 0.0 101037
03:00−18ese2410085 0.0 101073
06:00−19ese2410086 0.0 101171
09:00−18ese269981 0.1 1012111
12:00−12se259497 0.0 1012191
15:00−13ese259873 0.0 1012115
18:00−15ese299978 0.0 1013151
21:00−15ese289977 0.0 1013137
1 february, tue
tue100:00−15e289982 0.0 1012135
03:00−14e3109896 0.1 1011193
06:00−13e41297100 0.0 1009295
09:00−10ese41394100 0.3 1008406
12:00−7ese41193100 0.3 1006504
15:00−6ese41195100 0.8 1004564
18:00−5ese41295100 0.5 1002559
21:00−4se41295100 1.1 1001646
2 february, wed
wed200:00−2se41196100 0.4 1000587
03:00−2sse41097100 1.2 1000689
06:00−3sse3997100 0.5 1001536
09:00−3s3896100 1.2 1002684
12:00−4s4891100 0.3 1004729
15:00−5s4892100 0.4 1006688
18:00−6s41093100 0.1 1009502
21:00−8s3995100 0.3 1010367